Sunday, November 19, 2017, 12:00 AM EST
Back to Local

KBWI, Baltimore-washington International

Location: Glen Burnie, MD, United States Lat: 39.167
Local Time: 12:00 AM EST ( 5:00 GMT) Lon: -76.683
Time Zone: US/Eastern Elev: 147 ft

Show me the last for .
Show Decoded

2017-11-18 22:54 METAR KBWI 190354Z 21015G25KT 10SM FEW110 SCT160 OVC190 17/09 A2941 RMK AO2 PK
                 WND 20027/0320 SLP959 T01670094 =
2017-11-18 21:54 METAR KBWI 190254Z 21011G20KT 10SM FEW100 FEW120 OVC150 16/09 A2945 RMK AO2 PK
                 WND 20026/0207 SLP970 60000 T01610089 58030 =
2017-11-18 20:54 METAR KBWI 190154Z 20009G17KT 10SM SCT130 OVC150 16/08 A2949 RMK AO2 RAB0058E07
                 SLP985 P0000 T01560078 =
2017-11-18 19:54 METAR KBWI 190054Z 19005KT 10SM FEW130 BKN160 OVC200 14/07 A2952 RMK AO2 SLP995
                 T01440067 =
2017-11-18 18:54 METAR KBWI 182354Z 19006KT 10SM SCT180 OVC200 13/05 A2953 RMK AO2 SLP001 60000
                 T01330050 10150 20128 58030 =
2017-11-18 17:54 METAR KBWI 182254Z 17005KT 10SM SCT100 OVC160 13/05 A2957 RMK AO2 SLP014
                 T01280050 =
2017-11-18 16:54 METAR KBWI 182154Z 18005KT 10SM BKN100 BKN110 OVC250 13/05 A2959 RMK AO2
                 RAB07E37 SLP021 P0000 T01280050 =
2017-11-18 15:54 METAR KBWI 182054Z 20005KT 10SM BKN090 OVC110 14/04 A2963 RMK AO2 RAB09E40
                 SLP032 P0000 60000 T01390039 56028 =
2017-11-18 14:54 METAR KBWI 181954Z 21006KT 10SM BKN120 OVC250 15/03 A2964 RMK AO2 SLP036
                 T01500033 =
2017-11-18 13:54 METAR KBWI 181854Z 21008KT 10SM BKN120 BKN160 OVC250 15/03 A2967 RMK AO2 SLP047
                 T01500033 =
2017-11-18 12:54 METAR KBWI 181754Z 20005KT 10SM BKN110 OVC250 13/03 A2971 RMK AO2 SLP060
                 T01330028 10139 20028 58047 =
2017-11-18 11:54 METAR KBWI 181654Z 20009KT 10SM BKN095 BKN120 OVC250 13/02 A2975 RMK AO2 SLP076
                 T01280022 =
2017-11-18 10:54 METAR KBWI 181554Z 00000KT 10SM SCT075 BKN090 BKN120 OVC250 09/02 A2982 RMK AO2
                 SLP099 T00940022 =
2017-11-18 09:54 METAR KBWI 181454Z VRB05KT 10SM BKN095 BKN160 OVC250 08/02 A2985 RMK AO2 SLP108
                 T00830022 58028 =
2017-11-18 08:54 METAR KBWI 181354Z 18006KT 10SM BKN160 OVC250 06/01 A2988 RMK AO2 SLP119
                 T00610011 =
2017-11-18 07:54 METAR KBWI 181254Z 18005KT 10SM SCT200 BKN250 04/01 A2991 RMK AO2 SLP128
                 T00440006 =
2017-11-18 06:54 METAR KBWI 181154Z 20003KT 10SM FEW190 FEW210 BKN250 03/M01 A2993 RMK AO2 SLP136
                 T00281006 10028 21011 58024 =
2017-11-18 05:54 METAR KBWI 181054Z 15003KT 10SM FEW190 BKN250 02/M01 A2995 RMK AO2 SLP142
                 T00221006 =
2017-11-18 04:54 METAR KBWI 180954Z 00000KT 10SM FEW210 BKN250 01/M02 A2999 RMK AO2 SLP157
                 T00061017 =
2017-11-18 03:54 METAR KBWI 180854Z 22003KT 10SM BKN250 01/M02 A3000 RMK AO2 SLP160 T00061022
                 56020 =
2017-11-18 02:54 METAR KBWI 180754Z 00000KT 10SM SCT250 02/M02 A3002 RMK AO2 SLP165 T00221022 =
2017-11-18 01:54 METAR KBWI 180654Z 23003KT 10SM SCT250 01/M02 A3004 RMK AO2 SLP171 T00061017 =
2017-11-18 00:54 METAR KBWI 180554Z 00000KT 10SM BKN250 01/M01 A3006 RMK AO2 SLP180 T00061011
                 10039 20000 58015 =

Support USWX by starting your Amazon purchase here.